Home   Weather   Pasadena   Past weeks

Flag for USA Past Weather in Pasadena, Texas, USA — Yesterday and Last 2 Weeks

Now
77 °F

Clear.


Feels Like: 79 °F
Forecast: 70 / 85 °F
Wind: 1 mph from Northeast

Location: Houston / Ellington

Current Time: Sep 29, 2016 at 1:49:36 AM

Latest Report: Sep 29, 2016 at 12:50 AM


Visibility: 10 mi

Pressure: 30.06 "Hg

Humidity: 65%

Dew Point: 64 °F

Location of PasadenaLocation

Past Weather in Pasadena — Graph

°F

Pasadena Temperature Yesterday

Maximum temperature yesterday: 88 °F (at 1:50 PM)
Minimum temperature yesterday: 72 °F (at 6:50 AM)
Average temperature yesterday: 80 °F

High & Low Weather Summary for the Past Weeks

 TemperatureHumidityPressure
High97 °F (Sep 19, 1:50 PM)100% (Sep 20, 7:50 PM)30.10 "Hg (Sep 20, 7:50 PM)
Low72 °F (Sep 28, 6:50 AM)43% (Sep 28, 5:50 PM)29.88 "Hg (Sep 16, 5:50 PM)
Average83 °F75%29.99 "Hg
* Reported Sep 14 12:50 AM — Sep 29 12:50 AM, Pasadena, Weather by CustomWeather, © 2016

Note: Actual official high and low records may vary slightly from our data, if they occured in-between our weather recording intervals... More about our weather records

Advertising

Pasadena Weather History for the Previous 24 Hours

Scroll right to see more
 ConditionsComfort  
Time TempWeatherWind HumidityBarometerVisibility
12:50 AM
Thu, Sep 29
77 °FClear.1 mph65%30.06 "Hg10 mi
11:50 PM
Wed, Sep 28
79 °FClear.2 mph61%30.06 "Hg10 mi
10:50 PM79 °FClear.No wind58%30.06 "Hg10 mi
9:50 PM77 °FClear.No wind65%30.05 "Hg10 mi
8:50 PM81 °FPassing clouds.No wind58%30.03 "Hg10 mi
7:50 PM82 °FPassing clouds.No wind51%30.02 "Hg10 mi
6:50 PM86 °FPassing clouds.No wind46%30.01 "Hg10 mi
5:50 PM88 °FPassing clouds.No wind43%30.00 "Hg10 mi
4:50 PM88 °FPassing clouds.3 mph46%30.00 "Hg10 mi
3:50 PM88 °FPassing clouds.3 mph46%30.00 "Hg10 mi
2:50 PM88 °FPassing clouds.No wind46%30.02 "Hg10 mi
1:50 PM88 °FPassing clouds.6 mph46%30.04 "Hg10 mi
12:50 PM86 °FPassing clouds.3 mph46%30.05 "Hg10 mi
11:50 AM86 °FPassing clouds.7 mph46%30.07 "Hg10 mi
10:50 AM82 °FPassing clouds.5 mph55%30.08 "Hg10 mi
9:50 AM86 °FPassing clouds.3 mph49%30.07 "Hg10 mi
8:50 AM75 °FPassing clouds.3 mph61%30.05 "Hg10 mi
7:50 AM73 °FPassing clouds.No wind74%30.04 "Hg10 mi
6:50 AM72 °FPassing clouds.No wind83%30.01 "Hg10 mi
5:50 AM73 °FPassing clouds.No wind78%29.99 "Hg10 mi
4:50 AM73 °FPassing clouds.No wind78%29.99 "Hg10 mi
3:50 AM73 °FPassing clouds.No wind78%29.99 "Hg10 mi
2:50 AM73 °FPassing clouds.No wind78%30.00 "Hg10 mi
1:50 AM75 °FPassing clouds.3 mph74%30.00 "Hg10 mi
Weather by CustomWeather, © 2016

See weather overviewHow to use our weather pages